Time,TemperatureF,DewpointF,PressureIn,WindDirection,WindDirectionDegrees,WindSpeedMPH,WindSpeedGustMPH,Humidity,HourlyPrecipIn,Conditions,Clouds,dailyrainin,SoftwareType,DateUTC
2013-01-06 00:00:00,17.6,15.7,30.00,NNW,340,4.0,5.0,92,0.00,,---,0.00,VWS V13.01,2013-01-06 06:00:00,
2013-01-06 00:05:00,17.6,15.7,30.00,NNW,339,0.0,4.0,92,0.00,,---,0.00,VWS V13.01,2013-01-06 06:05:00,
2013-01-06 00:10:00,17.6,15.7,30.00,NNW,346,4.0,6.0,92,0.00,,---,0.00,VWS V13.01,2013-01-06 06:10:00,
2013-01-06 00:16:00,17.5,15.6,29.99,NNW,343,4.0,6.0,92,0.00,,---,0.00,VWS V13.01,2013-01-06 06:16:00,
2013-01-06 00:21:00,17.5,15.6,29.99,NNW,344,2.0,5.0,92,0.00,,---,0.00,VWS V13.01,2013-01-06 06:21:00,
2013-01-06 00:26:00,17.4,15.5,29.99,North,355,4.0,7.0,92,0.00,,---,0.00,VWS V13.01,2013-01-06 06:26:00,
2013-01-06 00:31:00,17.4,15.5,30.01,NNW,333,2.0,5.0,92,0.00,,---,0.00,VWS V13.01,2013-01-06 06:31:00,
2013-01-06 00:37:00,17.4,15.5,30.01,NNW,329,3.0,6.0,92,0.00,,---,0.00,VWS V13.01,2013-01-06 06:37:00,
2013-01-06 00:42:00,17.4,15.7,30.01,North,349,3.0,6.0,93,0.00,,---,0.00,VWS V13.01,2013-01-06 06:42:00,
2013-01-06 00:47:00,17.3,15.4,30.02,North,355,1.0,7.0,92,0.00,,---,0.00,VWS V13.01,2013-01-06 06:47:00,
2013-01-06 00:53:00,17.3,15.4,30.02,NNW,330,4.0,8.0,92,0.00,,---,0.00,VWS V13.01,2013-01-06 06:53:00,
2013-01-06 00:58:00,17.3,15.4,30.02,NNW,348,2.0,8.0,92,0.00,,---,0.00,VWS V13.01,2013-01-06 06:58:00,
2013-01-06 01:03:00,17.3,15.4,30.02,NNW,327,3.0,6.0,92,0.00,,---,0.00,VWS V13.01,2013-01-06 07:03:00,
2013-01-06 01:08:00,17.2,15.5,30.02,NNW,347,3.0,7.0,93,0.00,,---,0.00,VWS V13.01,2013-01-06 07:08:00,
2013-01-06 01:14:00,17.2,15.5,30.02,NNW,344,2.0,7.0,93,0.00,,---,0.00,VWS V13.01,2013-01-06 07:14:00,
2013-01-06 01:19:00,17.1,15.4,30.02,NNW,348,3.0,9.0,93,0.00,,---,0.00,VWS V13.01,2013-01-06 07:19:00,
2013-01-06 01:24:00,17.0,15.3,30.02,NNW,340,5.0,12.0,93,0.00,,---,0.00,VWS V13.01,2013-01-06 07:24:00,
2013-01-06 01:29:00,17.0,15.3,30.02,NNW,344,5.0,12.0,93,0.00,,---,0.00,VWS V13.01,2013-01-06 07:29:00,
2013-01-06 01:34:00,17.0,15.1,30.02,NNW,340,6.0,9.0,92,0.00,,---,0.00,VWS V13.01,2013-01-06 07:34:00,
2013-01-06 01:40:00,17.0,15.3,30.02,NW,311,4.0,9.0,93,0.00,,---,0.00,VWS V13.01,2013-01-06 07:40:00,
2013-01-06 01:45:00,16.9,15.0,30.02,North,5,6.0,9.0,92,0.00,,---,0.00,VWS V13.01,2013-01-06 07:45:00,
2013-01-06 01:50:00,16.9,15.0,30.03,NNW,333,4.0,11.0,92,0.00,,---,0.00,VWS V13.01,2013-01-06 07:50:00,
2013-01-06 01:55:00,16.9,15.0,30.03,North,355,3.0,11.0,92,0.00,,---,0.00,VWS V13.01,2013-01-06 07:55:00,
2013-01-06 02:01:00,16.8,14.9,30.04,NNW,336,6.0,12.0,92,0.00,,---,0.00,VWS V13.01,2013-01-06 08:01:00,
2013-01-06 02:06:00,16.8,14.9,30.04,North,350,5.0,6.0,92,0.00,,---,0.00,VWS V13.01,2013-01-06 08:06:00,
2013-01-06 02:11:00,16.8,14.9,30.04,North,5,7.0,9.0,92,0.00,,---,0.00,VWS V13.01,2013-01-06 08:11:00,
2013-01-06 02:16:00,16.8,14.9,30.07,NNW,342,2.0,6.0,92,0.00,,---,0.00,VWS V13.01,2013-01-06 08:16:00,
2013-01-06 02:22:00,16.7,14.8,30.07,North,11,1.0,6.0,92,0.00,,---,0.00,VWS V13.01,2013-01-06 08:22:00,
2013-01-06 02:27:00,16.7,14.8,30.07,NNW,331,3.0,7.0,92,0.00,,---,0.00,VWS V13.01,2013-01-06 08:27:00,
2013-01-06 02:32:00,16.6,14.7,30.07,NNE,16,5.0,9.0,92,0.00,,---,0.00,VWS V13.01,2013-01-06 08:32:00,
2013-01-06 02:38:00,16.5,14.6,30.07,North,11,0.0,9.0,92,0.00,,---,0.00,VWS V13.01,2013-01-06 08:38:00,
2013-01-06 02:43:00,16.5,14.6,30.07,North,5,4.0,11.0,92,0.00,,---,0.00,VWS V13.01,2013-01-06 08:43:00,
2013-01-06 02:48:00,16.4,14.5,30.09,NW,324,4.0,7.0,92,0.00,,---,0.00,VWS V13.01,2013-01-06 08:48:00,
2013-01-06 02:53:00,16.3,14.4,30.09,North,360,3.0,7.0,92,0.00,,---,0.00,VWS V13.01,2013-01-06 08:53:00,
2013-01-06 02:58:00,16.2,14.3,30.09,North,355,3.0,7.0,92,0.00,,---,0.00,VWS V13.01,2013-01-06 08:58:00,
2013-01-06 03:04:00,16.2,14.0,30.08,North,5,5.0,5.0,91,0.00,,---,0.00,VWS V13.01,2013-01-06 09:04:00,
2013-01-06 03:09:00,16.1,13.9,30.08,North,350,6.0,8.0,91,0.00,,---,0.00,VWS V13.01,2013-01-06 09:09:00,
2013-01-06 03:14:00,15.9,13.7,30.08,North,360,2.0,10.0,91,0.00,,---,0.00,VWS V13.01,2013-01-06 09:14:00,
2013-01-06 03:20:00,15.8,13.6,30.09,North,355,5.0,10.0,91,0.00,,---,0.00,VWS V13.01,2013-01-06 09:20:00,
2013-01-06 03:25:00,15.7,13.5,30.09,NW,323,9.0,10.0,91,0.00,,---,0.00,VWS V13.01,2013-01-06 09:25:00,
2013-01-06 03:30:00,15.6,13.4,30.09,North,360,1.0,10.0,91,0.00,,---,0.00,VWS V13.01,2013-01-06 09:30:00,
2013-01-06 03:35:00,15.6,13.4,30.09,North,349,5.0,9.0,91,0.00,,---,0.00,VWS V13.01,2013-01-06 09:35:00,
2013-01-06 03:41:00,15.4,13.2,30.09,NNE,13,2.0,9.0,91,0.00,,---,0.00,VWS V13.01,2013-01-06 09:41:00,
2013-01-06 03:46:00,15.4,13.0,30.12,North,9,2.0,9.0,90,0.00,,---,0.00,VWS V13.01,2013-01-06 09:46:00,
2013-01-06 03:51:00,15.3,12.9,30.12,NNW,344,2.0,6.0,90,0.00,,---,0.00,VWS V13.01,2013-01-06 09:51:00,
2013-01-06 03:57:00,15.3,12.9,30.12,North,5,3.0,7.0,90,0.00,,---,0.00,VWS V13.01,2013-01-06 09:57:00,
2013-01-06 04:02:00,15.3,12.9,30.12,North,360,4.0,6.0,90,0.00,,---,0.00,VWS V13.01,2013-01-06 10:02:00,
2013-01-06 04:07:00,15.2,12.8,30.12,NNW,334,2.0,9.0,90,0.00,,---,0.00,VWS V13.01,2013-01-06 10:07:00,
2013-01-06 04:12:00,15.1,12.7,30.12,North,5,3.0,10.0,90,0.00,,---,0.00,VWS V13.01,2013-01-06 10:12:00,
2013-01-06 04:17:00,15.0,12.6,30.13,North,5,5.0,6.0,90,0.00,,---,0.00,VWS V13.01,2013-01-06 10:17:00,
2013-01-06 04:23:00,14.9,12.5,30.13,NW,313,0.0,7.0,90,0.00,,---,0.00,VWS V13.01,2013-01-06 10:23:00,
2013-01-06 04:28:00,14.8,12.4,30.13,North,9,7.0,11.0,90,0.00,,---,0.00,VWS V13.01,2013-01-06 10:28:00,
2013-01-06 04:33:00,14.8,12.1,30.14,North,360,6.0,9.0,89,0.00,,---,0.00,VWS V13.01,2013-01-06 10:33:00,
2013-01-06 04:38:00,14.6,12.2,30.14,NNW,342,9.0,10.0,90,0.00,,---,0.00,VWS V13.01,2013-01-06 10:38:00,
2013-01-06 04:44:00,14.6,11.9,30.14,NW,313,4.0,10.0,89,0.00,,---,0.00,VWS V13.01,2013-01-06 10:44:00,
2013-01-06 04:49:00,14.5,11.9,30.14,North,10,3.0,6.0,89,0.00,,---,0.00,VWS V13.01,2013-01-06 10:49:00,
2013-01-06 04:54:00,14.4,11.8,30.14,NNW,342,3.0,9.0,89,0.00,,---,0.00,VWS V13.01,2013-01-06 10:54:00,
2013-01-06 04:59:00,14.4,11.5,30.14,North,9,3.0,9.0,88,0.00,,---,0.00,VWS V13.01,2013-01-06 10:59:00,
2013-01-06 05:05:00,14.3,11.1,30.16,North,360,1.0,10.0,87,0.00,,---,0.00,VWS V13.01,2013-01-06 11:05:00,
2013-01-06 05:10:00,14.3,11.1,30.16,NNW,345,2.0,10.0,87,0.00,,---,0.00,VWS V13.01,2013-01-06 11:10:00,
2013-01-06 05:15:00,14.2,11.1,30.16,NNW,348,3.0,10.0,87,0.00,,---,0.00,VWS V13.01,2013-01-06 11:15:00,
2013-01-06 05:20:00,14.1,10.9,30.16,North,11,6.0,9.0,87,0.00,,---,0.00,VWS V13.01,2013-01-06 11:20:00,
2013-01-06 05:26:00,14.0,11.1,30.16,North,9,3.0,9.0,88,0.00,,---,0.00,VWS V13.01,2013-01-06 11:26:00,
2013-01-06 05:31:00,14.0,11.1,30.16,NNW,346,4.0,9.0,88,0.00,,---,0.00,VWS V13.01,2013-01-06 11:31:00,
2013-01-06 05:36:00,13.9,11.0,30.16,North,355,4.0,6.0,88,0.00,,---,0.00,VWS V13.01,2013-01-06 11:36:00,
2013-01-06 05:41:00,13.9,11.0,30.16,NNE,13,3.0,7.0,88,0.00,,---,0.00,VWS V13.01,2013-01-06 11:41:00,
2013-01-06 05:46:00,13.9,11.0,30.18,NNW,343,2.0,3.0,88,0.00,,---,0.00,VWS V13.01,2013-01-06 11:46:00,
2013-01-06 05:52:00,13.9,11.0,30.18,NNE,12,4.0,6.0,88,0.00,,---,0.00,VWS V13.01,2013-01-06 11:52:00,
2013-01-06 05:57:00,13.8,10.9,30.18,NNE,14,5.0,6.0,88,0.00,,---,0.00,VWS V13.01,2013-01-06 11:57:00,
2013-01-06 06:02:00,13.8,10.9,30.19,North,349,2.0,6.0,88,0.00,,---,0.00,VWS V13.01,2013-01-06 12:02:00,
2013-01-06 06:07:00,13.7,10.8,30.19,North,360,3.0,11.0,88,0.00,,---,0.00,VWS V13.01,2013-01-06 12:07:00,
2013-01-06 06:13:00,13.7,10.8,30.19,NNW,327,4.0,11.0,88,0.00,,---,0.00,VWS V13.01,2013-01-06 12:13:00,
2013-01-06 06:18:00,13.7,10.8,30.20,North,355,4.0,6.0,88,0.00,,---,0.00,VWS V13.01,2013-01-06 12:18:00,
2013-01-06 06:23:00,13.6,10.5,30.20,North,9,3.0,12.0,87,0.00,,---,0.00,VWS V13.01,2013-01-06 12:23:00,
2013-01-06 06:29:00,13.6,10.5,30.20,NNE,26,5.0,12.0,87,0.00,,---,0.00,VWS V13.01,2013-01-06 12:29:00,
2013-01-06 06:34:00,13.5,10.1,30.20,NNW,340,7.0,12.0,86,0.00,,---,0.00,VWS V13.01,2013-01-06 12:34:00,
2013-01-06 06:39:00,13.4,10.0,30.20,NNW,333,1.0,12.0,86,0.00,,---,0.00,VWS V13.01,2013-01-06 12:39:00,
2013-01-06 06:44:00,13.4,10.0,30.20,North,355,6.0,12.0,86,0.00,,---,0.00,VWS V13.01,2013-01-06 12:44:00,
2013-01-06 06:49:00,13.3,9.9,30.23,NNE,15,4.0,12.0,86,0.00,,---,0.00,VWS V13.01,2013-01-06 12:49:00,
2013-01-06 06:55:00,13.2,9.8,30.23,North,360,5.0,12.0,86,0.00,,---,0.00,VWS V13.01,2013-01-06 12:55:00,
2013-01-06 07:00:00,13.2,9.6,30.23,NNE,17,5.0,12.0,85,0.00,,---,0.00,VWS V13.01,2013-01-06 13:00:00,
2013-01-06 07:05:00,13.1,9.2,30.23,NNE,17,5.0,10.0,84,0.00,,---,0.00,VWS V13.01,2013-01-06 13:05:00,
2013-01-06 07:10:00,13.0,9.4,30.23,NNW,327,4.0,11.0,85,0.00,,---,0.00,VWS V13.01,2013-01-06 13:10:00,
2013-01-06 07:16:00,13.0,9.4,30.24,North,355,9.0,12.0,85,0.00,,---,0.00,VWS V13.01,2013-01-06 13:16:00,
2013-01-06 07:21:00,12.9,9.5,30.24,North,355,1.0,9.0,86,0.00,,---,0.00,VWS V13.01,2013-01-06 13:21:00,
2013-01-06 07:26:00,12.8,9.4,30.24,North,355,9.0,11.0,86,0.00,,---,0.00,VWS V13.01,2013-01-06 13:26:00,
2013-01-06 07:32:00,12.7,9.1,30.25,NNE,16,3.0,7.0,85,0.00,,---,0.00,VWS V13.01,2013-01-06 13:32:00,
2013-01-06 07:37:00,12.6,9.2,30.25,NNW,337,4.0,9.0,86,0.00,,---,0.00,VWS V13.01,2013-01-06 13:37:00,
2013-01-06 07:42:00,12.6,9.2,30.25,North,360,0.0,9.0,86,0.00,,---,0.00,VWS V13.01,2013-01-06 13:42:00,
2013-01-06 07:48:00,12.5,9.1,30.25,North,11,2.0,10.0,86,0.00,,---,0.00,VWS V13.01,2013-01-06 13:48:00,
2013-01-06 07:53:00,12.3,8.9,30.25,NNE,17,4.0,10.0,86,0.00,,---,0.00,VWS V13.01,2013-01-06 13:53:00,
2013-01-06 07:58:00,12.3,8.9,30.25,NNE,12,2.0,10.0,86,0.00,,---,0.00,VWS V13.01,2013-01-06 13:58:00,
2013-01-06 08:03:00,12.2,8.8,30.25,North,5,5.0,6.0,86,0.00,,---,0.00,VWS V13.01,2013-01-06 14:03:00,
2013-01-06 08:09:00,12.1,8.7,30.25,NNE,12,2.0,9.0,86,0.00,,---,0.00,VWS V13.01,2013-01-06 14:09:00,
2013-01-06 08:14:00,12.1,8.7,30.25,NNW,338,2.0,10.0,86,0.00,,---,0.00,VWS V13.01,2013-01-06 14:14:00,
2013-01-06 08:19:00,12.0,8.6,30.27,North,10,2.0,7.0,86,0.00,,---,0.00,VWS V13.01,2013-01-06 14:19:00,
2013-01-06 08:24:00,12.0,8.6,30.27,North,355,3.0,8.0,86,0.00,,---,0.00,VWS V13.01,2013-01-06 14:24:00,
2013-01-06 08:30:00,11.9,8.5,30.27,North,355,4.0,8.0,86,0.00,,---,0.00,VWS V13.01,2013-01-06 14:30:00,
2013-01-06 08:35:00,11.9,8.5,30.29,NNE,17,4.0,7.0,86,0.00,,---,0.00,VWS V13.01,2013-01-06 14:35:00,
2013-01-06 08:40:00,12.0,8.6,30.29,North,5,4.0,7.0,86,0.00,,---,0.00,VWS V13.01,2013-01-06 14:40:00,
2013-01-06 08:45:00,11.9,8.5,30.29,NNE,14,4.0,7.0,86,0.00,,---,0.00,VWS V13.01,2013-01-06 14:45:00,
2013-01-06 08:51:00,11.8,8.4,30.29,NNE,15,6.0,10.0,86,0.00,,---,0.00,VWS V13.01,2013-01-06 14:51:00,
2013-01-06 08:56:00,11.8,8.4,30.29,NNE,17,2.0,10.0,86,0.00,,---,0.00,VWS V13.01,2013-01-06 14:56:00,
2013-01-06 09:01:00,11.8,8.4,30.29,NNE,17,4.0,5.0,86,0.00,,---,0.00,VWS V13.01,2013-01-06 15:01:00,
2013-01-06 09:07:00,11.8,8.4,30.29,North,5,5.0,7.0,86,0.00,,---,0.00,VWS V13.01,2013-01-06 15:07:00,
2013-01-06 09:12:00,11.8,8.2,30.29,NNE,15,3.0,9.0,85,0.00,,---,0.00,VWS V13.01,2013-01-06 15:12:00,
2013-01-06 09:17:00,11.7,8.1,30.30,North,360,5.0,7.0,85,0.00,,---,0.00,VWS V13.01,2013-01-06 15:17:00,
2013-01-06 09:23:00,11.6,8.0,30.30,NNE,29,3.0,7.0,85,0.00,,---,0.00,VWS V13.01,2013-01-06 15:23:00,
2013-01-06 09:28:00,11.6,8.0,30.30,NNE,32,2.0,7.0,85,0.00,,---,0.00,VWS V13.01,2013-01-06 15:28:00,
2013-01-06 09:33:00,11.6,8.0,30.31,North,355,3.0,5.0,85,0.00,,---,0.00,VWS V13.01,2013-01-06 15:33:00,
2013-01-06 09:38:00,11.9,8.3,30.31,NE,43,3.0,5.0,85,0.00,,---,0.00,VWS V13.01,2013-01-06 15:38:00,
2013-01-06 09:44:00,12.2,8.6,30.31,NNE,17,3.0,7.0,85,0.00,,---,0.00,VWS V13.01,2013-01-06 15:44:00,
2013-01-06 09:49:00,12.5,8.6,30.31,North,5,3.0,10.0,84,0.00,,---,0.00,VWS V13.01,2013-01-06 15:49:00,
2013-01-06 09:54:00,12.4,8.5,30.31,North,360,6.0,11.0,84,0.00,,---,0.00,VWS V13.01,2013-01-06 15:54:00,
2013-01-06 09:59:00,12.2,8.0,30.31,NNE,24,5.0,11.0,83,0.00,,---,0.00,VWS V13.01,2013-01-06 15:59:00,
2013-01-06 10:05:00,12.5,8.6,30.32,North,10,4.0,6.0,84,0.00,,---,0.00,VWS V13.01,2013-01-06 16:05:00,
2013-01-06 10:10:00,13.0,8.8,30.32,NNE,24,3.0,6.0,83,0.00,,---,0.00,VWS V13.01,2013-01-06 16:10:00,
2013-01-06 10:15:00,13.1,8.6,30.34,NNW,348,5.0,6.0,82,0.00,,---,0.00,VWS V13.01,2013-01-06 16:15:00,
2013-01-06 10:21:00,12.5,8.1,30.34,NNW,341,3.0,10.0,82,0.00,,---,0.00,VWS V13.01,2013-01-06 16:21:00,
2013-01-06 10:26:00,12.2,7.8,30.34,NW,326,5.0,10.0,82,0.00,,---,0.00,VWS V13.01,2013-01-06 16:26:00,
2013-01-06 10:31:00,12.0,7.8,30.34,North,11,4.0,10.0,83,0.00,,---,0.00,VWS V13.01,2013-01-06 16:31:00,
2013-01-06 10:36:00,11.8,7.6,30.34,NNE,15,3.0,5.0,83,0.00,,---,0.00,VWS V13.01,2013-01-06 16:36:00,
2013-01-06 10:41:00,11.8,7.6,30.34,NNE,13,1.0,5.0,83,0.00,,---,0.00,VWS V13.01,2013-01-06 16:41:00,
2013-01-06 10:47:00,12.3,8.1,30.33,NW,317,4.0,4.0,83,0.00,,---,0.00,VWS V13.01,2013-01-06 16:47:00,
2013-01-06 10:52:00,12.7,8.3,30.33,NNE,25,0.0,6.0,82,0.00,,---,0.00,VWS V13.01,2013-01-06 16:52:00,
2013-01-06 10:57:00,12.7,8.0,30.33,NNE,17,2.0,6.0,81,0.00,,---,0.00,VWS V13.01,2013-01-06 16:57:00,
2013-01-06 11:02:00,12.9,8.2,30.32,NNE,18,1.0,1.0,81,0.00,,---,0.00,VWS V13.01,2013-01-06 17:02:00,
2013-01-06 11:08:00,13.7,8.7,30.32,NNE,28,1.0,4.0,80,0.00,,---,0.00,VWS V13.01,2013-01-06 17:08:00,
2013-01-06 11:13:00,13.6,8.3,30.32,NNE,26,0.0,5.0,79,0.00,,---,0.00,VWS V13.01,2013-01-06 17:13:00,
2013-01-06 11:18:00,13.6,8.3,30.29,NNE,26,0.0,4.0,79,0.00,,---,0.00,VWS V13.01,2013-01-06 17:18:00,
2013-01-06 11:23:00,14.0,8.7,30.29,NNE,26,1.0,4.0,79,0.00,,---,0.00,VWS V13.01,2013-01-06 17:23:00,
2013-01-06 11:29:00,13.9,8.3,30.29,NNE,24,3.0,4.0,78,0.00,,---,0.00,VWS V13.01,2013-01-06 17:29:00,
2013-01-06 11:34:00,14.3,8.7,30.29,NNE,24,0.0,2.0,78,0.00,,---,0.00,VWS V13.01,2013-01-06 17:34:00,
2013-01-06 11:39:00,14.5,8.3,30.29,NNE,24,0.0,3.0,76,0.00,,---,0.00,VWS V13.01,2013-01-06 17:39:00,
2013-01-06 11:44:00,15.2,9.0,30.29,NNE,24,1.0,3.0,76,0.00,,---,0.00,VWS V13.01,2013-01-06 17:44:00,
2013-01-06 11:50:00,15.2,9.0,30.29,NNE,24,1.0,4.0,76,0.00,,---,0.00,VWS V13.01,2013-01-06 17:50:00,
2013-01-06 11:55:00,15.5,9.0,30.29,NNW,327,1.0,4.0,75,0.00,,---,0.00,VWS V13.01,2013-01-06 17:55:00,
2013-01-06 12:00:00,16.1,9.3,30.28,NW,323,1.0,4.0,74,0.00,,---,0.00,VWS V13.01,2013-01-06 18:00:00,
2013-01-06 12:05:00,16.2,9.4,30.28,NNW,328,3.0,5.0,74,0.00,,---,0.00,VWS V13.01,2013-01-06 18:05:00,
2013-01-06 12:11:00,16.0,9.2,30.28,NNW,338,1.0,5.0,74,0.00,,---,0.00,VWS V13.01,2013-01-06 18:11:00,
2013-01-06 12:16:00,16.0,8.9,30.29,NNW,330,1.0,1.0,73,0.00,,---,0.00,VWS V13.01,2013-01-06 18:16:00,
2013-01-06 12:21:00,15.9,8.8,30.29,NNW,331,0.0,4.0,73,0.00,,---,0.00,VWS V13.01,2013-01-06 18:21:00,
2013-01-06 12:27:00,15.6,8.5,30.29,NW,304,0.0,6.0,73,0.00,,---,0.00,VWS V13.01,2013-01-06 18:27:00,
2013-01-06 12:32:00,15.7,8.6,30.28,NW,304,0.0,3.0,73,0.00,,---,0.00,VWS V13.01,2013-01-06 18:32:00,
2013-01-06 12:37:00,15.4,8.6,30.28,North,5,0.0,5.0,74,0.00,,---,0.00,VWS V13.01,2013-01-06 18:37:00,
2013-01-06 12:42:00,15.5,8.7,30.28,NNW,331,2.0,5.0,74,0.00,,---,0.00,VWS V13.01,2013-01-06 18:42:00,
2013-01-06 12:48:00,15.7,9.2,30.28,NNW,328,2.0,4.0,75,0.00,,---,0.00,VWS V13.01,2013-01-06 18:48:00,
2013-01-06 12:53:00,16.2,9.4,30.28,NNW,327,1.0,4.0,74,0.00,,---,0.00,VWS V13.01,2013-01-06 18:53:00,
2013-01-06 12:58:00,16.6,9.2,30.28,NNW,329,0.0,4.0,72,0.00,,---,0.00,VWS V13.01,2013-01-06 18:58:00,
2013-01-06 13:03:00,16.8,9.4,30.27,NW,314,2.0,5.0,72,0.00,,---,0.00,VWS V13.01,2013-01-06 19:03:00,
2013-01-06 13:09:00,17.0,9.6,30.27,NW,306,0.0,5.0,72,0.00,,---,0.00,VWS V13.01,2013-01-06 19:09:00,
2013-01-06 13:14:00,17.8,10.0,30.27,NW,306,3.0,5.0,71,0.00,,---,0.00,VWS V13.01,2013-01-06 19:14:00,
2013-01-06 13:19:00,18.2,10.1,30.27,NW,306,0.0,2.0,70,0.00,,---,0.00,VWS V13.01,2013-01-06 19:19:00,
2013-01-06 13:24:00,18.2,10.1,30.27,NW,306,0.0,2.0,70,0.00,,---,0.00,VWS V13.01,2013-01-06 19:24:00,
2013-01-06 13:29:00,18.7,10.2,30.27,NW,306,0.0,2.0,69,0.00,,---,0.00,VWS V13.01,2013-01-06 19:29:00,
2013-01-06 13:34:00,19.0,10.5,30.25,NW,305,2.0,4.0,69,0.00,,---,0.00,VWS V13.01,2013-01-06 19:34:00,
2013-01-06 13:40:00,18.9,10.4,30.25,NW,307,1.0,4.0,69,0.00,,---,0.00,VWS V13.01,2013-01-06 19:40:00,
2013-01-06 13:45:00,18.7,10.6,30.25,NW,311,4.0,4.0,70,0.00,,---,0.00,VWS V13.01,2013-01-06 19:45:00,
2013-01-06 13:50:00,18.3,10.2,30.25,NW,315,1.0,4.0,70,0.00,,---,0.00,VWS V13.01,2013-01-06 19:50:00,
2013-01-06 13:55:00,18.7,10.6,30.25,NW,314,0.0,4.0,70,0.00,,---,0.00,VWS V13.01,2013-01-06 19:55:00,
2013-01-06 14:00:00,19.2,10.7,30.24,NW,306,0.0,4.0,69,0.00,,---,0.00,VWS V13.01,2013-01-06 20:00:00,
2013-01-06 14:05:00,19.7,10.9,30.24,NW,306,1.0,4.0,68,0.00,,---,0.00,VWS V13.01,2013-01-06 20:05:00,
2013-01-06 14:11:00,19.7,10.9,30.24,NW,306,0.0,4.0,68,0.00,,---,0.00,VWS V13.01,2013-01-06 20:11:00,
2013-01-06 14:13:00,19.7,10.9,30.24,NW,306,0.0,4.0,68,0.00,,---,0.00,VWS V13.01,2013-01-06 20:13:00,
2013-01-06 14:18:00,19.5,10.3,30.25,SW,225,0.0,5.0,67,0.00,,---,0.00,VWS V13.01,2013-01-06 20:18:00,
2013-01-06 14:24:00,19.5,10.3,30.25,SW,222,0.0,5.0,67,0.00,,---,0.00,VWS V13.01,2013-01-06 20:24:00,
2013-01-06 14:29:00,19.4,10.6,30.25,SW,229,3.0,5.0,68,0.00,,---,0.00,VWS V13.01,2013-01-06 20:29:00,
2013-01-06 14:34:00,19.1,10.3,30.27,South,188,1.0,3.0,68,0.00,,---,0.00,VWS V13.01,2013-01-06 20:34:00,
2013-01-06 14:40:00,19.2,10.4,30.27,SSW,203,4.0,5.0,68,0.00,,---,0.00,VWS V13.01,2013-01-06 20:40:00,
2013-01-06 14:45:00,19.4,10.6,30.27,SSW,211,0.0,6.0,68,0.00,,---,0.00,VWS V13.01,2013-01-06 20:45:00,
2013-01-06 14:50:00,19.7,10.9,30.27,SSW,210,0.0,5.0,68,0.00,,---,0.00,VWS V13.01,2013-01-06 20:50:00,
2013-01-06 14:56:00,19.5,10.7,30.27,SSW,209,0.0,5.0,68,0.00,,---,0.00,VWS V13.01,2013-01-06 20:56:00,
2013-01-06 15:01:00,19.7,11.2,30.26,SSW,209,1.0,1.0,69,0.00,,---,0.00,VWS V13.01,2013-01-06 21:01:00,
2013-01-06 15:06:00,19.5,11.0,30.26,SSW,209,0.0,4.0,69,0.00,,---,0.00,VWS V13.01,2013-01-06 21:06:00,
2013-01-06 15:12:00,19.2,10.7,30.26,SSW,209,0.0,4.0,69,0.00,,---,0.00,VWS V13.01,2013-01-06 21:12:00,
2013-01-06 15:17:00,18.8,10.6,30.28,SSW,209,0.0,0.0,70,0.00,,---,0.00,VWS V13.01,2013-01-06 21:17:00,
2013-01-06 15:22:00,18.6,10.5,30.28,SSW,210,2.0,4.0,70,0.00,,---,0.00,VWS V13.01,2013-01-06 21:22:00,
2013-01-06 15:27:00,18.5,10.7,30.28,SSW,210,0.0,4.0,71,0.00,,---,0.00,VWS V13.01,2013-01-06 21:27:00,
2013-01-06 15:33:00,18.9,11.1,30.27,SSW,211,2.0,5.0,71,0.00,,---,0.00,VWS V13.01,2013-01-06 21:33:00,
2013-01-06 15:38:00,19.1,10.9,30.27,SSW,211,0.0,5.0,70,0.00,,---,0.00,VWS V13.01,2013-01-06 21:38:00,
2013-01-06 15:43:00,19.1,10.9,30.27,SSW,211,0.0,5.0,70,0.00,,---,0.00,VWS V13.01,2013-01-06 21:43:00,
2013-01-06 15:48:00,19.1,10.9,30.26,SSW,207,0.0,1.0,70,0.00,,---,0.00,VWS V13.01,2013-01-06 21:48:00,
2013-01-06 15:53:00,19.3,10.8,30.26,SSW,207,0.0,3.0,69,0.00,,---,0.00,VWS V13.01,2013-01-06 21:53:00,
2013-01-06 15:59:00,19.3,10.8,30.26,SSW,207,0.0,3.0,69,0.00,,---,0.00,VWS V13.01,2013-01-06 21:59:00,
2013-01-06 16:04:00,19.1,10.9,30.26,SSW,207,0.0,4.0,70,0.00,,---,0.00,VWS V13.01,2013-01-06 22:04:00,
2013-01-06 16:09:00,18.8,10.6,30.26,SSW,207,0.0,4.0,70,0.00,,---,0.00,VWS V13.01,2013-01-06 22:09:00,
2013-01-06 16:14:00,18.4,10.6,30.26,SSW,207,1.0,4.0,71,0.00,,---,0.00,VWS V13.01,2013-01-06 22:14:00,
2013-01-06 16:20:00,17.7,10.5,30.28,South,180,2.0,6.0,73,0.00,,---,0.00,VWS V13.01,2013-01-06 22:20:00,
2013-01-06 16:25:00,17.3,11.1,30.28,South,172,1.0,6.0,76,0.00,,---,0.00,VWS V13.01,2013-01-06 22:25:00,
2013-01-06 16:30:00,17.0,11.3,30.30,South,188,3.0,10.0,78,0.00,,---,0.00,VWS V13.01,2013-01-06 22:30:00,
2013-01-06 16:35:00,16.6,11.2,30.30,SSE,165,2.0,6.0,79,0.00,,---,0.00,VWS V13.01,2013-01-06 22:35:00,
2013-01-06 16:40:00,16.2,11.1,30.30,South,179,0.0,6.0,80,0.00,,---,0.00,VWS V13.01,2013-01-06 22:40:00,
2013-01-06 16:46:00,15.8,11.0,30.28,South,175,1.0,9.0,81,0.00,,---,0.00,VWS V13.01,2013-01-06 22:46:00,
2013-01-06 16:51:00,15.5,10.7,30.28,South,181,3.0,4.0,81,0.00,,---,0.00,VWS V13.01,2013-01-06 22:51:00,
2013-01-06 16:56:00,15.1,10.6,30.28,SSE,150,6.0,6.0,82,0.00,,---,0.00,VWS V13.01,2013-01-06 22:56:00,
2013-01-06 17:01:00,14.8,10.6,30.30,SSE,149,1.0,6.0,83,0.00,,---,0.00,VWS V13.01,2013-01-06 23:01:00,
2013-01-06 17:06:00,14.6,10.7,30.30,South,191,1.0,7.0,84,0.00,,---,0.00,VWS V13.01,2013-01-06 23:06:00,
2013-01-06 17:11:00,14.5,10.6,30.30,South,191,0.0,7.0,84,0.00,,---,0.00,VWS V13.01,2013-01-06 23:11:00,
2013-01-06 17:17:00,14.5,10.8,30.30,South,180,4.0,6.0,85,0.00,,---,0.00,VWS V13.01,2013-01-06 23:17:00,
2013-01-06 17:22:00,14.4,10.7,30.30,SSW,200,2.0,10.0,85,0.00,,---,0.00,VWS V13.01,2013-01-06 23:22:00,
2013-01-06 17:27:00,14.3,10.6,30.30,South,190,5.0,11.0,85,0.00,,---,0.00,VWS V13.01,2013-01-06 23:27:00,
2013-01-06 17:32:00,14.3,10.9,30.31,South,172,3.0,5.0,86,0.00,,---,0.00,VWS V13.01,2013-01-06 23:32:00,
2013-01-06 17:38:00,14.3,10.9,30.31,SSW,193,2.0,6.0,86,0.00,,---,0.00,VWS V13.01,2013-01-06 23:38:00,
2013-01-06 17:43:00,14.3,10.9,30.31,SSE,160,2.0,8.0,86,0.00,,---,0.00,VWS V13.01,2013-01-06 23:43:00,
2013-01-06 17:48:00,14.4,11.0,30.30,South,182,5.0,6.0,86,0.00,,---,0.00,VWS V13.01,2013-01-06 23:48:00,
2013-01-06 17:53:00,14.4,11.0,30.30,SSW,196,2.0,6.0,86,0.00,,---,0.00,VWS V13.01,2013-01-06 23:53:00,
2013-01-06 17:58:00,14.4,11.2,30.30,South,184,2.0,6.0,87,0.00,,---,0.00,VWS V13.01,2013-01-06 23:58:00,
2013-01-06 18:04:00,14.4,11.2,30.28,South,181,2.0,6.0,87,0.00,,---,0.00,VWS V13.01,2013-01-07 00:04:00,
2013-01-06 18:09:00,14.5,11.3,30.28,SSW,192,1.0,7.0,87,0.00,,---,0.00,VWS V13.01,2013-01-07 00:09:00,
2013-01-06 18:14:00,14.6,11.4,30.28,South,190,2.0,7.0,87,0.00,,---,0.00,VWS V13.01,2013-01-07 00:14:00,
2013-01-06 18:19:00,14.9,11.7,30.27,South,182,2.0,7.0,87,0.00,,---,0.00,VWS V13.01,2013-01-07 00:19:00,
2013-01-06 18:24:00,15.0,11.8,30.27,South,173,3.0,12.0,87,0.00,,---,0.00,VWS V13.01,2013-01-07 00:24:00,
2013-01-06 18:29:00,15.0,11.8,30.27,South,184,2.0,12.0,87,0.00,,---,0.00,VWS V13.01,2013-01-07 00:29:00,
2013-01-06 18:34:00,14.9,11.7,30.26,South,181,3.0,9.0,87,0.00,,---,0.00,VWS V13.01,2013-01-07 00:34:00,
2013-01-06 18:39:00,15.0,12.1,30.26,South,176,1.0,12.0,88,0.00,,---,0.00,VWS V13.01,2013-01-07 00:39:00,
2013-01-06 18:45:00,14.9,12.0,30.26,South,169,1.0,12.0,88,0.00,,---,0.00,VWS V13.01,2013-01-07 00:45:00,
2013-01-06 18:50:00,15.0,12.1,30.26,South,178,6.0,7.0,88,0.00,,---,0.00,VWS V13.01,2013-01-07 00:50:00,
2013-01-06 18:55:00,15.1,12.2,30.26,South,174,2.0,12.0,88,0.00,,---,0.00,VWS V13.01,2013-01-07 00:55:00,
2013-01-06 19:00:00,15.1,12.2,30.26,SSW,209,6.0,12.0,88,0.00,,---,0.00,VWS V13.01,2013-01-07 01:00:00,
2013-01-06 19:06:00,15.1,12.2,30.26,SSW,192,2.0,10.0,88,0.00,,---,0.00,VWS V13.01,2013-01-07 01:06:00,
2013-01-06 19:11:00,15.0,12.1,30.26,SSW,208,0.0,10.0,88,0.00,,---,0.00,VWS V13.01,2013-01-07 01:11:00,
2013-01-06 19:16:00,15.0,12.1,30.28,South,171,0.0,10.0,88,0.00,,---,0.00,VWS V13.01,2013-01-07 01:16:00,
2013-01-06 19:21:00,15.0,12.1,30.28,SSE,159,2.0,10.0,88,0.00,,---,0.00,VWS V13.01,2013-01-07 01:21:00,
2013-01-06 19:27:00,15.0,12.1,30.28,SSE,158,4.0,10.0,88,0.00,,---,0.00,VWS V13.01,2013-01-07 01:27:00,
2013-01-06 19:32:00,15.0,12.1,30.28,SSE,149,7.0,10.0,88,0.00,,---,0.00,VWS V13.01,2013-01-07 01:32:00,
2013-01-06 19:37:00,15.2,12.6,30.28,SSE,167,6.0,12.0,89,0.00,,---,0.00,VWS V13.01,2013-01-07 01:37:00,
2013-01-06 19:42:00,15.3,12.6,30.28,SW,229,1.0,12.0,89,0.00,,---,0.00,VWS V13.01,2013-01-07 01:42:00,
2013-01-06 19:48:00,15.4,12.7,30.27,South,178,1.0,9.0,89,0.00,,---,0.00,VWS V13.01,2013-01-07 01:48:00,
2013-01-06 19:53:00,15.5,12.8,30.27,SSE,159,2.0,13.0,89,0.00,,---,0.00,VWS V13.01,2013-01-07 01:53:00,
2013-01-06 19:58:00,15.6,12.9,30.27,South,186,5.0,14.0,89,0.00,,---,0.00,VWS V13.01,2013-01-07 01:58:00,
2013-01-06 20:03:00,15.9,13.2,30.26,SSE,152,7.0,13.0,89,0.00,,---,0.00,VWS V13.01,2013-01-07 02:03:00,
2013-01-06 20:09:00,16.0,13.3,30.26,SSW,196,6.0,13.0,89,0.00,,---,0.00,VWS V13.01,2013-01-07 02:09:00,
2013-01-06 20:14:00,16.2,13.5,30.26,South,171,1.0,13.0,89,0.00,,---,0.00,VWS V13.01,2013-01-07 02:14:00,
2013-01-06 20:19:00,16.3,13.6,30.25,South,170,1.0,7.0,89,0.00,,---,0.00,VWS V13.01,2013-01-07 02:19:00,
2013-01-06 20:24:00,16.4,14.0,30.25,South,184,1.0,7.0,90,0.00,,---,0.00,VWS V13.01,2013-01-07 02:24:00,
2013-01-06 20:30:00,16.6,14.2,30.25,South,170,2.0,8.0,90,0.00,,---,0.00,VWS V13.01,2013-01-07 02:30:00,
2013-01-06 20:35:00,16.8,14.4,30.24,SSW,206,5.0,15.0,90,0.00,,---,0.00,VWS V13.01,2013-01-07 02:35:00,
2013-01-06 20:40:00,16.9,14.5,30.24,SSE,163,8.0,15.0,90,0.00,,---,0.00,VWS V13.01,2013-01-07 02:40:00,
2013-01-06 20:46:00,17.0,14.3,30.24,South,171,2.0,15.0,89,0.00,,---,0.00,VWS V13.01,2013-01-07 02:46:00,
2013-01-06 20:51:00,17.1,14.4,30.24,South,173,3.0,12.0,89,0.00,,---,0.00,VWS V13.01,2013-01-07 02:51:00,
2013-01-06 20:56:00,17.1,14.4,30.24,South,185,4.0,12.0,89,0.00,,---,0.00,VWS V13.01,2013-01-07 02:56:00,
2013-01-06 21:01:00,17.2,14.5,30.22,SSW,200,4.0,12.0,89,0.00,,---,0.00,VWS V13.01,2013-01-07 03:01:00,
2013-01-06 21:06:00,17.2,14.5,30.22,South,186,5.0,10.0,89,0.00,,---,0.00,VWS V13.01,2013-01-07 03:06:00,
2013-01-06 21:11:00,17.3,14.9,30.22,South,172,2.0,12.0,90,0.00,,---,0.00,VWS V13.01,2013-01-07 03:11:00,
2013-01-06 21:17:00,17.3,14.9,30.22,South,180,3.0,10.0,90,0.00,,---,0.00,VWS V13.01,2013-01-07 03:17:00,
2013-01-06 21:22:00,17.4,15.0,30.22,South,183,3.0,11.0,90,0.00,,---,0.00,VWS V13.01,2013-01-07 03:22:00,
2013-01-06 21:27:00,17.4,15.0,30.22,SSW,193,9.0,13.0,90,0.00,,---,0.00,VWS V13.01,2013-01-07 03:27:00,
2013-01-06 21:33:00,17.5,15.1,30.19,SSW,197,5.0,16.0,90,0.00,,---,0.00,VWS V13.01,2013-01-07 03:33:00,
2013-01-06 21:38:00,17.5,15.1,30.19,South,186,2.0,16.0,90,0.00,,---,0.00,VWS V13.01,2013-01-07 03:38:00,
2013-01-06 21:43:00,17.5,15.1,30.19,SSW,211,7.0,16.0,90,0.00,,---,0.00,VWS V13.01,2013-01-07 03:43:00,
2013-01-06 21:48:00,17.5,15.1,30.19,SSW,209,5.0,9.0,90,0.00,,---,0.00,VWS V13.01,2013-01-07 03:48:00,
2013-01-06 21:53:00,17.4,15.0,30.19,SSW,204,3.0,10.0,90,0.00,,---,0.00,VWS V13.01,2013-01-07 03:53:00,
2013-01-06 21:59:00,17.4,15.0,30.19,SSE,167,10.0,10.0,90,0.00,,---,0.00,VWS V13.01,2013-01-07 03:59:00,
2013-01-06 22:04:00,17.5,15.1,30.18,South,171,4.0,9.0,90,0.00,,---,0.00,VWS V13.01,2013-01-07 04:04:00,
2013-01-06 22:09:00,17.7,15.0,30.18,SSE,156,9.0,12.0,89,0.00,,---,0.00,VWS V13.01,2013-01-07 04:09:00,
2013-01-06 22:14:00,17.9,15.2,30.18,SSE,161,1.0,15.0,89,0.00,,---,0.00,VWS V13.01,2013-01-07 04:14:00,
2013-01-06 22:20:00,17.9,15.2,30.17,South,170,7.0,13.0,89,0.00,,---,0.00,VWS V13.01,2013-01-07 04:20:00,
2013-01-06 22:25:00,17.9,15.2,30.17,SW,220,9.0,18.0,89,0.00,,---,0.00,VWS V13.01,2013-01-07 04:25:00,
2013-01-06 22:30:00,17.9,15.2,30.15,SSE,159,4.0,19.0,89,0.00,,---,0.00,VWS V13.01,2013-01-07 04:30:00,
2013-01-06 22:35:00,17.9,15.2,30.15,SSE,153,5.0,13.0,89,0.00,,---,0.00,VWS V13.01,2013-01-07 04:35:00,
2013-01-06 22:41:00,18.0,15.3,30.15,SSE,167,3.0,15.0,89,0.00,,---,0.00,VWS V13.01,2013-01-07 04:41:00,
2013-01-06 22:46:00,18.1,15.4,30.14,SSE,166,8.0,15.0,89,0.00,,---,0.00,VWS V13.01,2013-01-07 04:46:00,
2013-01-06 22:51:00,18.2,15.5,30.14,SSW,205,5.0,17.0,89,0.00,,---,0.00,VWS V13.01,2013-01-07 04:51:00,
2013-01-06 22:56:00,18.3,15.6,30.14,SSW,197,9.0,17.0,89,0.00,,---,0.00,VWS V13.01,2013-01-07 04:56:00,
2013-01-06 23:00:00,18.4,15.7,30.12,SSE,161,5.0,17.0,89,0.00,,---,0.00,VWS V13.01,2013-01-07 05:00:00,
2013-01-06 23:01:00,18.4,15.7,30.12,South,173,7.0,17.0,89,0.00,,---,0.00,VWS V13.01,2013-01-07 05:01:00,
2013-01-06 23:03:00,18.5,15.8,30.12,SSE,152,9.0,18.0,89,0.00,,---,0.00,VWS V13.01,2013-01-07 05:03:00,
2013-01-06 23:08:00,18.6,15.9,30.12,South,178,5.0,18.0,89,0.00,,---,0.00,VWS V13.01,2013-01-07 05:08:00,
2013-01-06 23:14:00,18.6,15.6,30.12,SE,135,12.0,18.0,88,0.00,,---,0.00,VWS V13.01,2013-01-07 05:14:00,
2013-01-06 23:19:00,18.7,15.7,30.07,SSE,153,6.0,12.0,88,0.00,,---,0.00,VWS V13.01,2013-01-07 05:19:00,
2013-01-06 23:24:00,18.7,15.7,30.07,SSW,194,6.0,15.0,88,0.00,,---,0.00,VWS V13.01,2013-01-07 05:24:00,
2013-01-06 23:29:00,18.8,15.8,30.07,South,171,6.0,18.0,88,0.00,,---,0.00,VWS V13.01,2013-01-07 05:29:00,
2013-01-06 23:34:00,18.8,15.8,30.05,SSE,158,20.0,20.0,88,0.00,,---,0.00,VWS V13.01,2013-01-07 05:34:00,
2013-01-06 23:40:00,18.9,16.2,30.05,South,183,9.0,20.0,89,0.00,,---,0.00,VWS V13.01,2013-01-07 05:40:00,
2013-01-06 23:45:00,18.9,15.9,30.05,South,171,3.0,20.0,88,0.00,,---,0.00,VWS V13.01,2013-01-07 05:45:00,
2013-01-06 23:50:00,18.9,15.9,30.05,SW,229,10.0,14.0,88,0.00,,---,0.00,VWS V13.01,2013-01-07 05:50:00,
2013-01-06 23:55:00,18.8,15.8,30.05,SSE,158,3.0,19.0,88,0.00,,---,0.00,VWS V13.01,2013-01-07 05:55:00,